Lexington Weather

Lexington, Massachusetts, USA

44°F
5/12/2021 4:34am 
  • Lexington Conditions: Clear
  • Temperature: 44.4°F / 6.9°CColder 0.6°F than last hour.
  • Dew Point: 33.4°FIncreased 1.0°Fsince last hour.
  • Relative Humidity: 65%Increased 4.0% since last hour.
  • Wind: Calm, 10-min avg: Calm, gust: 2 mph
  • Barometer: 29.92 in Steady
  • Visibility: 10 miles
  • Rain Today: 0.00 in
  •   

Regional Weather Roundup
for Boston / Norton, MA

        
000
ASUS41 KBOX 061204
RWRBOX

REGIONAL WEATHER ROUNDUP
NATIONAL WEATHER SERVICE BOSTON/NORTON MA
800 AM EDT THU MAY 06 2021

NOTE:  "FAIR" INDICATES FEW OR NO CLOUDS BELOW 12,000 FEET WITH NO 
SIGNIFICANT WEATHER AND/OR OBSTRUCTIONS TO VISIBILITY.

MAZALL-061300-
EASTERN MASSACHUSETTS
  
CITY           SKY/WX    TMP DP  RH WIND       PRES   REMARKS
BOSTON         NOT AVBL                                               
BEVERLY        SUNNY     53  42  66 NW13G21   29.77R                  
LAWRENCE       SUNNY     52  42  69 W10G20    29.79R                  
BEDFORD        SUNNY     53  44  71 NW13      29.79R                  
BLUE HILL        N/A     49  45  86 NW16G23   29.78R                  
NORWOOD        SUNNY     55  45  68 NW10      29.80R                  
MARSHFIELD     SUNNY     55  46  71 NW10G22   29.78R                  
PLYMOUTH       SUNNY     53  45  74 NW15G23   29.79R                  
TAUNTON        SUNNY     54  46  74 W7        29.80R                  
NEW BEDFORD    SUNNY     54  45  71 NW9G18    29.80R                  
$$

MAZALL-061300-
CAPE COD AND THE ISLANDS
  
CITY           SKY/WX    TMP DP  RH WIND       PRES   REMARKS
FALMOUTH       SUNNY     54  46  76 NW12      29.79                   
HYANNIS        SUNNY     55  45  68 NW13G21   29.76R                  
CHATHAM        SUNNY     54  46  74 NW9G20    29.78R                  
PROVINCETOWN   SUNNY     51  45  79 NW15      29.78R                  
NANTUCKET      MOSUNNY   55  48  77 NW14G22   29.79R                  
MARTHAS VNYRD  SUNNY     54  47  77 NW14G20   29.80R                  
$$
 
MAZALL-061300-
CENTRAL AND WESTERN MASSACHUSETTS
  
CITY           SKY/WX    TMP DP  RH WIND       PRES   REMARKS
WORCESTER      MOSUNNY   48  40  73 NW15G22   29.82R                  
6HR MIN TEMP:  45; 6HR MAX TEMP:  49;                                

FITCHBURG      PTSUNNY   50  40  68 NW12      29.82R                  
ORANGE         CLOUDY    50  41  71 NW9       29.85R                  
SPRINGFIELD    MOSUNNY   50  40  67 NW9       29.85R                  
WESTFIELD      SUNNY     51  40  65 NW15G21   29.87R                  
NORTH ADAMS    PTSUNNY   48  40  73 W8        29.90R                  
PITTSFIELD     PTSUNNY   45  38  76 NW10      29.88R                  
$$
 
RIZALL-061300-
RHODE ISLAND
  
CITY           SKY/WX    TMP DP  RH WIND       PRES   REMARKS
PROVIDENCE     MOSUNNY   55  42  61 NW14G22   29.82R                  
6HR MIN TEMP:  49; 6HR MAX TEMP:  55;                                

NEWPORT        SUNNY     52  44  74 NW9       29.82R                  
BLOCK ISLAND   SUNNY     51  44  77 W10G17    29.85R                  
SMITHFIELD     HAZE      51  45  79 NW15      29.82R VSB 1/2          
WESTERLY       SUNNY     52  42  69 VRB7      29.84R                  
$$
 
CTZALL-061300-
CONNECTICUT
  
CITY           SKY/WX    TMP DP  RH WIND       PRES   REMARKS
BRADLEY INTL   MOSUNNY   52  38  58 NW16G29   29.87R                  
6HR MIN TEMP:  47; 6HR MAX TEMP:  52;                                

HARTFORD       MOSUNNY   54  38  54 NW14      29.89R                  
BRIDGEPORT     SUNNY     54  37  52 NW17G26   29.89R                  
DANBURY        SUNNY     52  38  58 NW10      29.93R                  
GROTON         SUNNY     53  42  66 NW16      29.85R                  
NEW HAVEN      SUNNY     54  40  59 N10G18    29.88R                  
CHESTER        FAIR      54  39  58 NW15G26   29.87R                  
MERIDEN        MOSUNNY   52  37  56 NW13      29.90R                  
WILLIMANTIC    MOSUNNY   52  41  66 NW10G23   29.86R                  
OXFORD         SUNNY     49  38  65 NW9G21    29.90R                  
$$

MEZ002-015-021-024-NHZ003-005-008-011-012-014-VTZ005-008-061300-
NORTHERN NEW ENGLAND
  
CITY           SKY/WX    TMP DP  RH WIND       PRES   REMARKS
PORTLAND ME    MOSUNNY   51  46  83 NW9       29.72R                  
6HR MIN TEMP:  45; 6HR MAX TEMP:  51;                                

BANGOR ME      CLOUDY    45  43  93 NW5       29.67R                  
CONCORD NH     PTSUNNY   49  38  65 NW16G24   29.79R                  
MANCHESTER NH  MOSUNNY   52  38  58 NW16G26   29.78R                  
NASHUA NH      MOSUNNY   51  40  65 NW18G24   29.81R                  
PORTSMOUTH NH  MOSUNNY   52  42  68 W14       29.76R                  
JAFFREY NH     PTSUNNY   49  39  68 MISG      29.82R                  
KEENE NH       PTSUNNY   50  39  66 N22       29.84R                  
BURLINGTON VT  MOSUNNY   48  33  56 NW16G22   29.90R                  
MT. WASHINGTON NOT AVBL                                               
$$

NYZ052-076-061300-
EASTERN NEW YORK
  
CITY           SKY/WX    TMP DP  RH WIND       PRES   REMARKS
ALBANY         MOSUNNY   46  39  76 W13       29.93R                  
6HR MIN TEMP:  41; 6HR MAX TEMP:  46;                                

NEW YORK CITY  MOSUNNY   54  38  54 NW16      29.94R                  
6HR MIN TEMP:  52; 6HR MAX TEMP:  54;                                

$$
 
ANZALL-061300-
MARINE OBSERVATIONS
  
STATION/POSITION TIME  TEMP    WIND        PRES    VSBY  WAVE
                       AIR SEA DIR/SP/G                  HT/PER
                 (UTC) (F)     (DEG/KT/KT) (MB)    (MI)  (FT/S)
BOSTON BUOY      1140   49     280/ 14/ 16 1007.6R
BUZZARDS BAY     1100          290/ 13/ 14 1010.1R
NANTUCKET SOUND  1140      51                N/A
MASS BAY-STELLWA 1104   49     290/ 14/ 17 1005.8R  1 1/2  2/ 6
ISLE OF SHOALS   1100   49     280/ 18/ 19 1006.3R
S OF BLOCK IS    1126      49                N/A           3/ 8
$$

......................KEY.........................
  SKY/WX - SKY CONDITION/PRESENT WEATHER
  TMP    - TEMPERATURE IN FAHRENHEIT
  DWPT   - DEWPOINT IN FAHRENHEIT
  RH     - RELATIVE HUMIDITY IN PERCENT
  WIND   - DIRECTION AND SPEED IN MPH
  PRES   - MEAN SEA LEVEL PRESSURE IN INCHES OF HG
  WCI    - WIND CHILL INDEX
  VSB    - VISIBILITY IN MILES
  HX     - HEAT INDEX
  TC     - TEMPERATURE IN CELSIUS
  VRB    - VARIABLE WIND DIRECTION
  N/A    - NOT AVAILABLE
  
      

Other recent Regional Weather Roundups

Wed May 12, 4:04am

Wed May 12, 3:04am

Wed May 12, 2:04am

Wed May 12, 1:04am

Wed May 12, 12:05am

Tue May 11, 11:05pm

Tue May 11, 10:04pm

Tue May 11, 9:05pm

Tue May 11, 8:05pm

Tue May 11, 7:04pm

Tue May 11, 6:04pm

Tue May 11, 5:04pm

Tue May 11, 4:05pm

Tue May 11, 3:04pm

Tue May 11, 2:05pm

Tue May 11, 1:04pm

Tue May 11, 12:05pm

Tue May 11, 11:05am

Tue May 11, 10:04am

Tue May 11, 9:04am

Tue May 11, 8:04am

Tue May 11, 7:05am

Tue May 11, 6:04am

Tue May 11, 5:04am

Tue May 11, 4:04am

Tue May 11, 3:04am

Tue May 11, 2:04am

Tue May 11, 1:04am

Tue May 11, 12:04am

Mon May 10, 11:04pm

Mon May 10, 10:04pm

Mon May 10, 9:05pm

Mon May 10, 8:04pm

Mon May 10, 7:05pm

Mon May 10, 6:04pm

Mon May 10, 5:04pm

Mon May 10, 4:04pm

Mon May 10, 3:04pm

Mon May 10, 2:04pm

Mon May 10, 1:04pm

Mon May 10, 12:04pm

Mon May 10, 11:05am

Mon May 10, 10:04am

Mon May 10, 9:04am

Mon May 10, 8:04am

Mon May 10, 7:04am

Mon May 10, 6:04am

Mon May 10, 5:05am

Mon May 10, 4:04am

Mon May 10, 3:04am

Mon May 10, 2:04am

Mon May 10, 1:04am

Mon May 10, 12:04am

Sun May 9, 11:04pm

Sun May 9, 10:04pm

Sun May 9, 9:04pm

Sun May 9, 8:04pm

Sun May 9, 7:05pm

Sun May 9, 6:04pm

Sun May 9, 5:04pm

Sun May 9, 4:04pm

Sun May 9, 3:04pm

Sun May 9, 2:04pm

Sun May 9, 1:05pm

Sun May 9, 12:04pm

Sun May 9, 11:05am

Sun May 9, 10:04am

Sun May 9, 9:04am

Sun May 9, 8:04am

Sun May 9, 7:04am

Sun May 9, 6:04am

Sun May 9, 5:04am

Sun May 9, 4:04am

Sun May 9, 3:04am

Sun May 9, 2:04am

Sun May 9, 1:05am

Sun May 9, 12:04am

Sat May 8, 11:05pm

Sat May 8, 10:04pm

Sat May 8, 9:05pm

Sat May 8, 8:04pm

Sat May 8, 7:04pm

Sat May 8, 6:04pm

Sat May 8, 5:05pm

Sat May 8, 4:04pm

Sat May 8, 3:05pm

Sat May 8, 2:05pm

Sat May 8, 1:05pm

Sat May 8, 12:04pm

Sat May 8, 11:05am

Sat May 8, 10:04am

Sat May 8, 9:04am

Sat May 8, 8:04am

Sat May 8, 7:04am

Sat May 8, 6:04am

Sat May 8, 5:04am

Sat May 8, 4:04am

Sat May 8, 3:04am

Sat May 8, 2:04am

Sat May 8, 1:05am

Sat May 8, 12:04am

Fri May 7, 11:04pm

Fri May 7, 10:05pm

Fri May 7, 9:04pm

Fri May 7, 8:04pm

Fri May 7, 7:05pm

Fri May 7, 6:04pm

Fri May 7, 5:05pm

Fri May 7, 4:04pm

Fri May 7, 3:04pm

Fri May 7, 2:05pm

Fri May 7, 1:04pm

Fri May 7, 12:04pm

Fri May 7, 11:05am

Fri May 7, 10:04am

Fri May 7, 9:04am

Fri May 7, 8:05am

Fri May 7, 7:04am

Fri May 7, 6:04am

Fri May 7, 5:04am

Fri May 7, 4:04am

Fri May 7, 3:04am

Fri May 7, 2:05am

Fri May 7, 1:04am

Fri May 7, 12:05am

Thu May 6, 11:04pm

Thu May 6, 10:04pm

Thu May 6, 9:05pm

Thu May 6, 8:04pm

Thu May 6, 7:04pm

Thu May 6, 6:04pm

Thu May 6, 5:05pm

Thu May 6, 4:04pm

Thu May 6, 3:04pm

Thu May 6, 2:05pm

Thu May 6, 1:04pm

Thu May 6, 12:04pm

Thu May 6, 11:04am

Thu May 6, 10:04am

Thu May 6, 9:04am

Thu May 6, 7:04am

Thu May 6, 6:04am

Thu May 6, 5:04am

Thu May 6, 4:04am

Thu May 6, 3:04am

Thu May 6, 2:05am

Thu May 6, 1:04am

Thu May 6, 12:05am

Wed May 5, 11:04pm

Wed May 5, 10:04pm

Wed May 5, 9:05pm

Wed May 5, 8:04pm

Wed May 5, 7:05pm

Wed May 5, 6:04pm

Wed May 5, 5:04pm

Wed May 5, 4:04pm

Wed May 5, 3:04pm

Wed May 5, 2:05pm

Wed May 5, 1:05pm

Wed May 5, 12:04pm

Wed May 5, 11:05am

Wed May 5, 10:04am

Wed May 5, 9:04am

Wed May 5, 8:04am

Wed May 5, 7:04am

Wed May 5, 6:05am

Wed May 5, 5:04am

Meta data:

ID: a45fa3be-64b5-40a0-80b5-50763409305b
Link: https://api.weather.gov/products/a45fa3be-64b5-40a0-80b5-50763409305b